CW3467 Sant Marti de Canals ES current weather conditions

sailwx.info

Wind from 238

Air temperature 8.3° C
Dewpoint -0.7° C

Last reported at 2020-Jan-18 13:01 UTC.
Time now 2020-Jan-18 14:03 UTC

Location: N 42°14' E 000°59'.
View on Google Maps.

See reports from other nearby stations

  
Tides and Currents Weather Stations Pressure Air Temp Water Temp Dewpoint Dewpoint Depression Visibility Wind Speed Wind Dir Waves Ship Positions
date/time (UTC)wind fromknots sea level pressurealtimeterstation pressurevisibilityair tempwater tempwave heightnotes
2020-Jan-18 13:01 238 8.3
2020-Jan-18 12:31 255 7.2
2020-Jan-18 12:16 245 6.1
2020-Jan-18 12:00 206 5.6
2020-Jan-18 11:30 203 1 gusting 6 3.9
2020-Jan-18 11:16 167 1 gusting 3 4.4
2020-Jan-18 11:02 212 5.0
2020-Jan-18 10:46 252 3.9
2020-Jan-18 10:31 192 4.4
2020-Jan-18 10:16 244 4.4
2020-Jan-18 10:03 171 4.4
2020-Jan-18 09:45 210 2.8
2020-Jan-18 09:30 249 2.2
2020-Jan-18 09:15 254 0.6
2020-Jan-18 09:01 235 0.6
2020-Jan-18 08:47 155 -0.0
2020-Jan-18 08:32 114 -0.0
2020-Jan-18 08:16 348 -0.0
2020-Jan-18 08:01 206 -0.6
2020-Jan-18 07:47 281 -0.0
2020-Jan-18 07:32 281 -0.0
2020-Jan-18 07:16 103 -0.6
2020-Jan-18 07:01 159 0.6
2020-Jan-18 06:45 080 -0.0
2020-Jan-18 06:30 040 -0.0
2020-Jan-18 06:15 271 -0.0
2020-Jan-18 06:02 336 0.6
2020-Jan-18 05:47 033 -0.0
2020-Jan-18 05:31 032 -0.0
2020-Jan-18 05:16 049 0.6
2020-Jan-18 05:01 035 -0.0
2020-Jan-18 04:46 135 -0.0
2020-Jan-18 04:31 043 -0.0
2020-Jan-18 04:17 266 -0.6
2020-Jan-18 04:01 117 -0.0
2020-Jan-18 03:45 117 -0.0
2020-Jan-18 03:30 142 -0.0
2020-Jan-18 03:17 291 0.6
2020-Jan-18 02:47 110 -0.0
2020-Jan-18 02:31 200 0.6
2020-Jan-18 02:15 094 -0.0
2020-Jan-18 02:02 205 0.6
2020-Jan-18 01:47 161 0.6
2020-Jan-18 01:30 108 0 gusting 1 0.6
2020-Jan-18 01:15 234 1.7
2020-Jan-18 01:02 338 1.7
2020-Jan-18 00:46 344 0 gusting 2 1.1
2020-Jan-18 00:31 013 1 gusting 3 0.6
2020-Jan-18 00:17 177 1.1
2020-Jan-18 00:01 074 1.1
2020-Jan-17 23:46 002 1.7
2020-Jan-17 23:31 342 1.7
2020-Jan-17 23:16 134 2.2
2020-Jan-17 23:01 112 0 gusting 0 1.7
2020-Jan-17 22:46 341 0 gusting 1 2.2
2020-Jan-17 22:32 225 2.2
2020-Jan-17 22:15 063 2.2
2020-Jan-17 22:03 092 2.2
2020-Jan-17 21:49 103 2.2
2020-Jan-17 21:31 103 2.8
2020-Jan-17 21:16 131 3.3
2020-Jan-17 21:02 085 0 gusting 5 2.8
2020-Jan-17 20:47 134 0 gusting 2 3.3
2020-Jan-17 20:32 105 0 gusting 0 3.3
2020-Jan-17 20:16 024 3.9
2020-Jan-17 20:00 033 3.9
2020-Jan-17 19:45 108 4.4
2020-Jan-17 19:35 168 4.4
2020-Jan-17 19:16 178 4.4
2020-Jan-17 19:01 256 5.6
2020-Jan-17 18:46 086 5.0
2020-Jan-17 18:31 047 5.6
2020-Jan-17 18:15 098 0 gusting 3 5.6
2020-Jan-17 18:00 025 6.1
2020-Jan-17 17:47 316 6.1
2020-Jan-17 17:30 290 0 gusting 2 6.7
2020-Jan-17 17:15 263 7.2
2020-Jan-17 17:00 068 1 gusting 5 7.8
2020-Jan-17 16:45 330 3 gusting 8 8.3
2020-Jan-17 16:30 011 3 gusting 9 8.3
2020-Jan-17 16:15 041 5 gusting 15 9.4
2020-Jan-17 15:46 207 11.7
2020-Jan-17 15:31 278 0 gusting 3 11.1
2020-Jan-17 15:16 264 3 gusting 12 11.1
2020-Jan-17 14:45 288 4 gusting 13 10.6
2020-Jan-17 14:32 278 6 gusting 13 10.6
2020-Jan-17 14:17 262 5 gusting 13 10.0
2020-Jan-17 14:01 330 1 gusting 13 9.4
2020-Jan-17 13:46 256 3 gusting 10 10.6
2020-Jan-17 13:18 207 5 gusting 12 11.7
2020-Jan-17 13:00 198 2 gusting 8 11.7
2020-Jan-17 12:45 215 2 gusting 6 11.7
2020-Jan-17 12:15 124 2 gusting 6 10.6
2020-Jan-17 12:02 193 1 gusting 6 11.1
2020-Jan-17 11:48 145 1 gusting 4 10.6
2020-Jan-17 11:17 197 9.4
2020-Jan-17 11:01 226 10.0
2020-Jan-17 10:47 150 8.9
2020-Jan-17 10:16 205 7.2
2020-Jan-17 10:01 195 7.2
2020-Jan-17 09:45 125 6.7
2020-Jan-17 09:16 258 3.9
2020-Jan-17 09:02 221 3.3
2020-Jan-17 08:46 221 2.8
2020-Jan-17 08:17 221 3.9
2020-Jan-17 08:01 134 3.3
2020-Jan-17 07:47 269 2.8
2020-Jan-17 07:15 233 3.3
2020-Jan-17 07:00 026 3.3
2020-Jan-17 06:48 171 2.8
2020-Jan-17 06:33 112 2.8
2020-Jan-17 06:18 094 2.8
2020-Jan-17 06:01 241 2.8
2020-Jan-17 05:46 059 2.8
2020-Jan-17 05:32 319 0 gusting 2 2.8
2020-Jan-17 05:16 326 3.3
2020-Jan-17 05:02 304 3.9
2020-Jan-17 04:47 094 3.9
2020-Jan-17 04:31 048 0 gusting 2 2.2
2020-Jan-17 04:15 234 0 gusting 3 3.3
2020-Jan-17 04:00 320 0 gusting 1 3.9
2020-Jan-17 03:46 139 3.3
2020-Jan-17 03:32 139 3.3
2020-Jan-17 03:16 084 3.3
2020-Jan-17 03:02 084 3.9
2020-Jan-17 02:46 086 3.3
2020-Jan-17 02:31 117 3.3
2020-Jan-17 02:16 261 2.8
2020-Jan-17 02:01 259 3.9
2020-Jan-17 01:45 033 3.9
2020-Jan-17 01:30 345 3.3
2020-Jan-17 01:15 342 3.3
2020-Jan-17 01:01 342 4.4
2020-Jan-17 00:46 344 4.4
2020-Jan-17 00:32 145 4.4
2020-Jan-17 00:16 145 4.4
2020-Jan-17 00:02 166 4.4
2020-Jan-16 23:45 166 4.4
2020-Jan-16 23:30 148 4.4
2020-Jan-16 23:16 153 5.0
2020-Jan-16 23:03 145 5.0
2020-Jan-16 22:45 145 4.4
2020-Jan-16 22:30 130 0 gusting 2 5.0
2020-Jan-16 22:15 015 5.6
2020-Jan-16 22:00 010 5.6
2020-Jan-16 21:45 314 5.6
2020-Jan-16 21:33 156 5.6
2020-Jan-16 21:16 155 5.6
2020-Jan-16 21:00 179 5.6
2020-Jan-16 20:45 287 6.1
2020-Jan-16 20:30 006 6.1
2020-Jan-16 20:15 006 6.1
2020-Jan-16 20:03 006 6.1
2020-Jan-16 19:46 354 6.1
2020-Jan-16 19:32 202 6.7
2020-Jan-16 19:17 081 0 gusting 1 6.7
2020-Jan-16 19:02 274 6.7
2020-Jan-16 18:48 135 6.1
2020-Jan-16 18:31 210 7.2
2020-Jan-16 18:01 247 7.2
2020-Jan-16 17:46 247 7.8
2020-Jan-16 17:30 247 7.8
2020-Jan-16 17:15 247 8.3
2020-Jan-16 17:00 247 8.9
2020-Jan-16 16:45 247 10.6
2020-Jan-16 16:30 247 11.7
2020-Jan-16 16:15 254 11.1
2020-Jan-16 16:02 254 11.1
2020-Jan-16 15:46 221 12.2
2020-Jan-16 15:31 202 11.7
2020-Jan-16 15:16 258 0 gusting 2 11.1
2020-Jan-16 15:01 250 11.1
2020-Jan-16 14:46 231 11.7
2020-Jan-16 14:31 233 11.1
2020-Jan-16 14:15 211 0 gusting 2 10.6
2020-Jan-16 14:02 217 11.1